Location: Arcones
(41.1182°N, 3.7238°W)
Time: 21:20:12
(UTC+00:00)

Meteor 2-10 - Pass Details

Date: 11 December 2025
Orbit: 737 x 865 km, 81.2° (Epoch: 12 January)

Event Time Altitude Azimuth Distance (km) Brightness Sun altitude
Rises 18:50:19 0° 348° (NNW) 3,304 7.3 -22.6°
Reaches altitude 10° 18:52:40 10° 346° (NNW) 2,390 6.6 -23.0°
Maximum altitude 18:58:03 72° 263° (W) 867 4.3 -24.0°
Drops below altitude 10° 19:03:35 10° 180° (S) 2,453 6.7 -25.0°
Sets 19:06:02 0° 178° (S) 3,398 7.4 -25.5°
